Regional Weather Roundup
Issued by NWS

Home | Current Version | Previous Version | Graphics & Text | Print | Product List | Glossary On
Versions: 1 2 3 4 5 6 7 8 9 10 11 12 13 14 15 16 17 18 19 20 21 22 23 24 25 26 27 28 29 30 31 32 33 34 35 36 37 38 39 40 41 42 43 44 45 46 47 48 49 50
000
ASUS43 KLMK 280602
RWRKY
KENTUCKY REGIONAL WEATHER ROUNDUP
NATIONAL WEATHER SERVICE LOUISVILLE KY
200 AM EDT WED SEP 28 2016

NOTE "FAIR" INDICATES FEW OR NO CLOUDS BELOW 12,000 FEET
WITH NO SIGNIFICANT WEATHER AND/OR OBSTRUCTIONS TO VISIBILITY.

KYZ001>023-026-027-061>063-070>075-280700-
WESTERN AND SOUTH CENTRAL KENTUCKY

CITY           SKY/WX    TMP DP  RH WIND       PRES   REMARKS
PADUCAH        CLEAR     60  50  69 SW6       29.89S
HENDERSON      CLEAR     59  48  67 SW8       29.86F
OWENSBORO      NOT AVBL
HOPKINSVILLE   CLEAR     58  50  74 S3        29.92S
BOWLING GREEN  CLEAR     56  50  80 CALM      29.93S
GLASGOW        NOT AVBL
$$

KYZ024-025-028>034-038-045-046-053-280700-
NORTH CENTRAL KENTUCKY

CITY           SKY/WX    TMP DP  RH WIND       PRES   REMARKS
LOUISVILLE/SDF PTCLDY    62  47  57 S5        29.88F
LOUISVILLE/LOU CLEAR     61  48  62 S3        29.89F
FORT KNOX      CLEAR     55  48  79 S8        29.89S
$$

KYZ035>037-039>044-047>052-055>060-089>105-280700-
NORTHEAST KENTUCKY

CITY           SKY/WX    TMP DP  RH WIND       PRES   REMARKS
LEXINGTON      CLEAR     57  44  62 S7        29.92F
COVINGTON      CLEAR     57  48  72 S9        29.87F
FRANKFORT      CLEAR     55  45  68 S6        29.90S
$$

KYZ054-064>069-076>088-106>120-280700-
SOUTHEAST KENTUCKY

CITY           SKY/WX    TMP DP  RH WIND       PRES   REMARKS
JACKSON        CLEAR     54  46  74 CALM      29.95S
LONDON         CLEAR     49  45  86 CALM      29.96S
SOMERSET       CLEAR     48  48 100 CALM      29.97S
MIDDLESBORO    PTCLDY    49  48  98 CALM      29.98S
MONTICELLO     CLEAR     48  46  93 W9        29.97F
$$





USA.gov is the U.S. government's official web portal to all federal, state and local government web resources and services.